Flag for Oman

Past Weather in Muscat, Oman — Yesterday and Last 2 Weeks

Now
84 °F

Passing clouds.


Feels Like: 101 °F
Forecast: 92 / 87 °F
Wind: 3 mph from Northwest

Location: International Airport

Current Time: Jul 16, 2020 at 7:41:32 am

Latest Report: Jul 16, 2020 at 6:50 am


Visibility: 5 mi

Pressure: 29.45 "Hg

Humidity: 94%

Dew Point: 82 °F

Location of MuscatLocation

Past Weather in Muscat — Graph

°F

Muscat Temperature Yesterday

Maximum temperature yesterday: 91 °F (at 10:50 am)
Minimum temperature yesterday: 86 °F (at 2:50 am)
Average temperature yesterday: 88 °F

High & Low Weather Summary for the Past Weeks

 TemperatureHumidityPressure
High104 °F (Jul 10, 9:50 am)100% (Jul 13, 2:50 am)29.53 "Hg (Jul 13, 2:50 am)
Low84 °F (Jul 14, 5:50 am)29% (Jul 10, 9:50 am)29.27 "Hg (Jul 5, 3:50 pm)
Average91 °F76%29.42 "Hg
* Reported Jul 1 4:50 am — Jul 16 4:50 am, Muscat. Weather by CustomWeather, © 2020

Note: Actual official high and low records may vary slightly from our data, if they occured in-between our weather recording intervals... More about our weather records

Muscat Weather History for the Previous 24 Hours

Scroll right to see more
 ConditionsComfort  
Time TempWeatherWind HumidityBarometerVisibility
4:50 am
Thu, Jul 16
86 °FPassing clouds.7 mph89%29.42 "HgN/A
2:50 am86 °FClear.2 mph89%29.39 "Hg10 mi
1:50 am86 °FClear.3 mph89%29.39 "Hg10 mi
12:50 am86 °FClear.5 mph89%29.42 "Hg10 mi
11:50 pm
Wed, Jul 15
86 °FClear.3 mph89%29.45 "Hg10 mi
10:50 pm86 °FClear.2 mph89%29.47 "Hg5 mi
9:50 pm86 °FClear.7 mph89%29.47 "Hg10 mi
8:50 pm86 °FClear.2 mph89%29.45 "Hg10 mi
7:50 pm86 °FClear.5 mph89%29.45 "Hg10 mi
6:50 pm88 °FSunny.5 mph84%29.42 "Hg10 mi
5:50 pm90 °FPassing clouds.12 mph71%29.39 "HgN/A
4:50 pm91 °FPassing clouds.12 mph67%29.39 "HgN/A
3:50 pm91 °FSunny.15 mph67%29.39 "Hg10 mi
2:50 pm91 °FSunny.16 mph67%29.42 "Hg10 mi
1:50 pm91 °FSunny.15 mph71%29.45 "Hg10 mi
12:50 pm91 °FSunny.14 mph71%29.47 "Hg10 mi
11:50 am90 °FSunny.14 mph75%29.47 "Hg10 mi
10:50 am91 °FSunny.10 mph71%29.50 "Hg10 mi
9:50 am90 °FSunny.10 mph84%29.50 "Hg10 mi
8:50 am88 °FClear.6 mph89%29.50 "Hg6 mi
7:50 am88 °FClear.3 mph89%29.50 "Hg5 mi
Weather by CustomWeather, © 2020

See weather overview